Simultaneous Nadir Overpasses (SNOs) Predictions

Prediction of SNOs between GOES-16 and NOAA-20 Satellite Orbit:

Table of predicted SNOs for the next 14.0 days since TLE Epoch: 12/1/2024
Index Date Time (GOES-16) GOES-16 Lat,Lon NOAA-20 Lat,Lon Distance(km) Time Diff (sec)
1 12/02/2024 06:30:32 0.00, -75.19 0.25, -76.39 136.03 80
2 12/03/2024 06:09:06 0.01, -75.19 -0.76, -71.85 381.35 80
3 12/04/2024 18:30:59 -0.01, -75.21 -0.46, -77.14 220.14 80
4 12/05/2024 18:14:53 -0.01, -75.22 0.55, -72.60 297.63 80
5 12/07/2024 06:36:37 0.00, -75.21 0.63, -77.86 302.17 80
6 12/08/2024 06:15:10 0.01, -75.22 -0.40, -73.32 215.92 80
7 12/09/2024 18:37:05 -0.00, -75.25 -0.75, -78.62 384.41 80
8 12/10/2024 18:20:58 -0.00, -75.26 0.28, -74.09 134.21 80
9 12/12/2024 06:42:43 0.00, -75.26 0.89, -79.34 464.22 80
10 12/13/2024 06:21:15 0.00, -75.27 -0.09, -74.79 54.35 80
